Location: *
(34.6780°N, 135.8310°E)
Time: 21:02:40
(UTC+00:00)

Meteor PRIRODA - Pass Details

Date: 18 October 2019
Orbit: 492 x 510 km, 97.5° (Epoch: 11 November)

Event Time Altitude Azimuth Distance (km) Brightness Sun altitude
Rises 19:27:26 0° 17° (NNE) 2,625 7.5 -20.8°
Reaches altitude 10° 19:29:34 10° 23° (NNE) 1,734 6.7 -20.3°
Maximum altitude 19:33:13 51° 100° (E) 644 4.5 -19.6°
Drops below altitude 10° 19:36:50 10° 177° (S) 1,715 6.4 -18.8°
Sets 19:38:56 0° 182° (S) 2,593 7.2 -18.4°
